SCP
0 0 0 0 0 0 0 0 0 0 0 0 0 0 0 0 0 0 0 0 0 0 0 0 0 0 0 0 0 0 0 0 0 0 0 0 0 0 0 0 0 0 0 0
0 0 0 0 0 0 0 0 0 0 0 -0 0 0 0 0 0 0 0 0 0 0 0 0 0 0 0 0 0 0 0 0 0 0 0 0 0 0 0 0 0 0 0 0
0 0 0 0 0 0 0 0 0 0 0 0 0 0 0 0 0 0 0 0 0 0 0 0 0 0 0 0 0 0 0 0 0 0 0 0 0 0 0 0 0 0 0 0
0 0 0 0 0 0 0 0 0 0 0 0 0 0 0 0 0 0 0 0 0 0 0 0 0 0 0 0 0 0 0 0 0 0 0 0 0 0 0 0 0 0 0 0
0 0 0 0 0 0 0 0 0 0 0 0 0 0 0 0 0 0 0 0 0 0 0 0 0 0 0 0 0 0 0 0 0 0 0 0 0 0 0 0 0 0 0 0
0 0 0 0 0 0 0 0 0 0 0 0 0 0 0 0 0 0 0 0 0 0 0 0 0 0 0 0 0 0 0 0 0 0 0 0 0 0 -0 0 0 0 0 0
0 0 0 0 0 0 0 0 0 0 0 0 0 0 0 0 0 0 0 0 0 0 0 0 0 0 0 0 0 0 0 0 0 0 0 0 0 0 0 0 0 0 0 0
0 0 0 0 0 0 0 0 0 0 0 0 0 0 0 0 0 0 0 0 0 0 0 0 0 0 0 0 0 0 0 0 0 0 0 0 0 0 0 0 -0 -0 -0 0
0 0 0 0 0 0 0 0 0 0 -0 0 0 0 0 0 0 0 0 0 0 0 0 0 0 0 0 0 0 0 0 0 0 0 0 0 0 0 0 0 0 0 -0 0
0 0 0 0 0 0 0 0 0 0 0 -0 0 0 0 0 0 0 0 0 0 0 0 0 0 0 0 0 0 0 0 0 0 0 0 0 0 0 0 0 0 0 0 0
0 0 0 0 0 0 0 0 0 0 0 0 0 0 0 0 0 0 0 0 0 0 0 0 0 0 0 0 0 0 0 0 0 0 0 0 0 0 0 0 0 0 0 0
0 0 0 0 0 0 0 0 0 0 0 0 0 0 0 0 0 0 0 0 0 0 0 0 0 0 0 0 0 0 0 0 0 0 0 0 0 0 0 0 0 0 0 0
0 0 0 0 0 0 0 0 0 0 0 0 0 0 0 0 0 0 0 0 0 0 0 0 0 0 0 0 0 0 0 0 0 0 0 0 0 0 0 0 0 0 0 0
0 0 0 0 0 0 0 0 0 0 0 0 0 0 0 0 0 0 0 0 0 0 0 0 0 0 0 0 0 0 0 0 0 0 0 0 0 0 0 0 0 0 0 0
0 0 0 0 0 0 0 0 0 0 0 0 0 0 0 0 0 0 0 0 0 0 0 0 0 0 0 0 0 0 0 0 0 0 0 0 0 0 0 0 0 0 0 0
0 0 0 0 0 0 0 0 0 0 0 0 0 0 0 0 0 0 0 0 0 0 0 0 0 0 0 0 0 0 0 0 0 0 0 0 0 0 0 0 0 0 0 0
0 0 0 0 0 0 0 0 0 0 0 0 0 -0 0 0 0 0 0 0 0 0 0 0 0 0 0 0 0 0 0 0 0 0 0 0 0 0 0 0 0 0 0 0
0 0 0 0 0 0 0 0 0 0 0 0 0 0 0 0 0 0 0 0 0 0 0 0 0 0 0 0 0 0 0 0 0 0 0 0 0 0 0 0 0 0 0 0
0 0 0 0 0 0 0 0 0 0 0 0 0 0 0 0 0 0 0 0 0 0 0 0 0 0 0 0 0 0 0 0 0 0 0 0 0 0 0 0 0 0 0 0
0 0 0 0 0 0 0 0 0 -0 0 0 0 0 0 0 0 0 0 0 0 0 0 0 0 -0 0 0 0 0 0 0 0 0 0 0 0 0 0 0 0 0 0 0
0 0 0 0 0 0 0 0 0 0 0 0 0 0 0 0 0 0 0 0 0 0 0 0 0 0 -0 0 0 0 0 0 0 0 0 0 0 0 0 0 0 0 0 0
0 0 0 0 -0 -0 0 0 0 0 0 0 0 0 0 0 0 0 0 0 0 0 0 0 0 -0 0 0 -0 -0 0 0 0 0 0 0 0 0 0 0 0 0 0 0
0 -0 -0 -0 0 0 0 0 0 0 0 0 0 0 0 0 0 0 0 0 0 0 0 0 -0 -0 -0 -0 -0 0 -0 -0 0 0 0 0 0 0 0 0 0 0 0 0
-0 0 0 -0 0 -0 -0 0 0 0 0 0 0 0 0 0 0 0 0 0 0 0 0 -0 -0 -0 -0 0 0 0 0 0 0 0 0 0 0 0 0 0 0 0 0 0
0 0 0 0 0 0 -0 0 0 0 0 0 0 0 0 0 0 0 0 0 0 0 -0 -0 -0 -0 -0 0 0 0 0 0 0 0 0 0 0 0 0 0 0 0 0 0
0 0 0 -0 0 0 0 0 0 0 0 0 0 0 0 0 0 0 0 0 0 0 0 0 0 0 0 0 0 0 0 0 0 0 0 0 0 0 0 0 0 0 0 0
0 0 0 -0 0 0 0 0 0 0 0 0 0 0 0 0 0 0 0 0 0 0 0 0 0 0 0 0 -0 -0 -0 0 0 0 0 0 0 0 0 0 0 0 0 -0
Wind_Speed_500mb
57 61 61 59 50 41 38 39 12 22 34 15 12 32 19 27 40 28 13 8 10 18 19 15 16 22 9 28 26 16 11 9 8 10 3 7 8 11 11 9 7 2 6 10
58 61 61 59 55 41 38 25 43 34 47 14 13 18 28 34 20 30 15 12 13 9 18 9 10 11 2 30 15 17 14 2 5 9 9 3 7 9 9 10 6 10 9 10
63 65 67 60 57 47 45 23 10 30 42 25 28 25 38 33 39 25 14 14 10 7 7 3 13 8 4 12 11 13 13 6 11 13 9 9 9 11 11 12 8 9 12 7
64 60 63 56 55 46 47 35 18 16 7 20 24 24 17 42 30 44 17 11 19 16 11 7 11 5 6 9 23 8 10 10 8 9 10 4 9 9 16 16 11 13 10 15
66 64 63 60 53 48 58 43 26 19 20 25 30 35 29 40 41 25 40 33 18 16 17 17 17 17 9 13 7 11 2 5 9 6 6 14 11 17 18 18 8 15 8 15
65 63 62 57 53 52 48 62 70 32 35 24 25 30 42 48 40 25 69 29 35 17 22 27 36 31 35 27 22 14 16 12 7 7 3 3 13 21 28 12 12 19 19 20
60 62 59 57 56 57 65 49 51 39 8 26 30 30 42 43 47 45 25 53 39 48 18 36 35 35 33 22 12 15 14 13 5 5 3 6 11 5 12 25 12 20 9 12
63 60 57 55 55 54 63 63 68 28 9 22 39 44 40 56 66 46 39 33 66 38 36 8 9 6 5 3 7 12 8 11 6 10 8 11 9 12 15 15 16 28 32 15
58 55 54 54 54 53 56 65 64 58 5 12 41 31 46 29 29 34 62 64 44 32 7 8 14 14 12 12 7 8 12 10 8 6 10 16 12 6 17 10 11 16 36 18
52 52 52 52 51 49 51 56 57 53 21 22 23 11 15 46 26 10 21 68 32 52 14 11 9 12 15 17 28 15 10 5 13 7 8 15 14 12 18 11 14 15 48 46
47 47 47 49 48 45 45 59 51 69 18 29 39 52 46 33 45 18 12 29 34 9 11 25 11 9 16 11 16 17 16 15 9 6 5 16 28 15 18 14 11 22 43 56
42 43 44 46 46 45 42 58 50 48 41 16 31 59 50 44 40 23 32 29 32 33 9 5 9 6 7 14 11 3 10 15 16 22 16 6 56 7 35 19 24 26 41 51
39 41 42 42 42 42 44 52 46 39 30 30 43 56 45 55 69 56 12 49 50 54 32 6 6 9 9 11 10 9 9 9 9 8 15 21 43 48 42 23 22 28 30 37
38 40 38 37 38 39 39 47 49 47 15 10 21 34 60 67 57 43 70 36 43 61 31 8 7 8 13 11 11 11 11 24 17 9 10 1 42 59 62 40 28 30 30 30
37 36 34 34 34 35 35 43 47 45 37 6 6 15 35 39 52 53 74 67 23 48 10 7 10 2 10 2 6 8 15 15 16 9 31 21 24 71 50 59 52 41 39 38
32 32 32 33 32 27 26 17 46 51 51 12 4 9 21 31 39 50 66 65 42 21 14 10 11 9 8 9 12 8 51 51 67 15 46 55 21 27 54 58 65 50 47 44
30 29 30 30 27 29 35 14 11 19 51 8 4 6 8 26 36 50 60 40 30 27 10 9 5 7 11 6 10 13 58 61 60 62 40 28 46 30 35 47 53 60 55 50
28 28 27 24 25 31 44 56 31 5 51 15 6 6 1 22 21 13 43 24 28 29 14 7 5 3 2 8 12 23 51 61 64 64 63 44 44 46 35 40 45 59 60 61
22 22 20 22 31 25 38 43 39 49 32 16 9 10 10 23 6 10 18 27 9 14 8 8 9 6 13 10 20 45 45 39 54 62 61 63 55 50 46 43 47 54 63 66
19 17 9 10 13 29 26 15 15 25 16 12 7 16 10 17 7 3 4 7 6 7 7 18 11 33 35 17 11 40 64 66 53 49 50 59 62 58 48 53 56 51 53 60
13 10 13 11 17 13 16 13 12 9 3 22 13 18 8 16 6 6 10 6 7 7 7 12 8 39 43 64 53 54 35 45 71 83 79 69 71 76 62 58 60 57 56 60
10 9 14 10 10 11 8 8 9 7 12 9 14 15 12 12 10 6 9 7 6 10 14 9 9 4 26 56 77 98 106 97 75 71 85 88 85 76 72 70 68 62 64 65
22 14 9 9 9 8 9 10 6 8 14 24 28 17 16 11 7 4 5 8 7 10 2 9 8 12 49 73 94 106 121 127 126 107 88 83 90 85 83 79 79 71 68 62
12 7 9 8 7 8 7 6 3 1 11 27 40 10 6 10 7 4 6 4 7 5 8 12 7 28 44 57 68 80 91 94 94 97 99 105 86 78 79 77 69 60 57 52
13 9 8 12 11 13 8 18 9 7 31 38 19 11 7 5 6 7 5 9 9 11 11 7 14 51 62 59 57 65 39 44 70 78 78 83 84 82 76 68 64 57 53 49
7 10 6 8 3 4 5 10 6 14 33 29 12 5 7 7 6 10 12 14 12 7 7 18 35 40 39 45 50 38 27 46 51 61 75 78 76 82 84 73 68 62 55 54
9 5 19 23 12 6 7 7 12 23 25 4 4 7 4 5 4 10 7 8 3 7 32 40 37 32 27 29 30 32 31 23 29 40 47 56 61 75 77 78 77 72 63 53
Wind_Direction_500mb
281 280 285 279 279 277 278 269 247 240 225 151 280 218 213 215 237 244 259 175 164 178 174 166 192 198 213 172 147 164 193 136 167 191 259 186 179 178 146 124 209 191 153 273
283 280 278 276 271 264 268 258 249 248 196 196 202 260 240 240 241 236 197 224 197 179 171 175 187 179 331 157 154 163 184 174 90 3 356 349 205 193 133 112 95 198 148 258
277 276 273 272 264 258 247 251 249 212 203 231 218 195 228 218 243 268 254 212 169 140 148 69 166 131 97 146 138 161 129 150 167 184 187 145 192 188 165 137 138 181 229 222
278 276 272 268 260 248 236 231 245 233 205 207 200 195 215 222 216 233 234 248 205 163 159 111 137 118 106 47 142 99 125 202 180 236 230 190 197 188 181 192 183 174 234 211
276 271 265 264 257 242 237 230 229 231 256 197 205 193 198 230 222 224 227 241 214 198 176 181 189 142 181 180 186 146 145 189 161 279 226 207 236 224 210 215 206 256 241 252
274 273 268 259 252 238 242 232 236 254 219 210 203 213 215 214 214 242 232 237 241 241 218 195 194 179 162 156 151 156 149 140 133 252 13 155 284 223 203 190 202 193 213 227
272 269 264 257 250 240 240 231 235 240 215 208 219 212 218 222 215 222 242 217 245 242 170 120 99 86 91 108 86 129 142 127 124 174 46 240 239 155 187 198 222 203 212 193
268 265 262 256 251 245 241 241 229 238 215 221 222 221 219 223 233 245 238 251 220 223 175 96 110 21 74 66 27 132 139 130 123 152 196 290 267 189 162 168 261 196 211 191
266 263 260 256 249 247 246 240 239 236 229 208 227 218 217 220 220 226 229 231 243 224 159 144 161 178 164 184 112 47 92 85 115 153 171 207 236 189 157 117 293 205 188 168
266 262 257 253 250 246 244 249 243 227 235 232 226 237 241 218 212 204 200 221 265 245 224 175 160 206 161 161 164 163 127 72 160 166 217 283 232 171 153 107 234 175 186 178
266 261 255 252 247 245 242 249 251 217 239 228 218 232 247 264 227 205 195 199 219 273 213 209 195 161 198 133 162 170 151 145 174 121 132 265 169 124 165 209 175 174 181 187
264 260 254 251 247 244 238 246 253 245 223 252 221 231 230 239 241 237 184 186 176 214 216 256 127 159 156 145 191 201 192 171 170 182 202 232 185 178 191 189 172 177 186 194
263 259 254 252 248 242 235 239 255 238 242 239 249 245 231 242 239 240 251 199 189 208 247 228 191 174 140 166 203 104 242 161 162 121 217 221 211 207 202 204 200 189 191 197
263 260 256 253 248 243 238 240 243 241 256 200 261 253 242 238 228 233 228 246 216 221 246 248 244 178 183 189 158 166 185 152 165 252 270 48 230 221 217 211 204 202 198 202
263 261 258 253 248 244 243 246 247 241 213 277 267 249 234 233 222 228 230 229 239 197 204 233 235 178 129 20 93 192 190 166 169 200 205 187 216 218 214 213 212 209 204 204
264 262 260 252 246 243 243 255 249 231 227 251 276 267 232 223 224 218 212 217 219 188 191 236 259 256 168 154 208 214 190 181 187 194 206 213 227 195 210 216 215 215 215 216
264 262 260 254 243 233 213 213 198 208 208 215 262 249 227 215 206 210 202 210 188 207 212 227 225 261 191 135 209 200 196 193 197 205 212 205 223 213 214 223 225 220 224 225
265 263 262 254 244 243 238 231 227 239 191 194 218 243 304 190 204 197 202 194 176 191 216 194 206 299 97 240 192 179 203 206 206 209 220 225 232 229 215 218 225 218 221 226
268 260 258 251 240 238 250 254 239 238 227 171 182 191 217 174 146 157 164 170 179 182 186 198 176 220 226 217 173 190 212 212 217 216 220 225 230 231 223 214 223 223 223 227
258 260 226 226 210 230 247 231 216 213 213 182 192 172 193 176 132 92 94 115 154 176 199 151 214 237 227 246 231 219 217 226 228 223 218 223 230 232 223 221 226 227 229 228
252 212 215 229 235 218 205 215 194 171 203 183 182 186 151 200 138 140 191 168 161 177 191 167 242 241 236 229 234 247 254 235 231 234 239 238 234 233 227 225 227 231 232 231
251 228 220 219 214 218 241 201 166 184 192 206 172 156 170 143 130 142 191 160 174 203 150 168 239 179 212 232 234 237 237 240 239 235 236 237 238 239 236 233 232 234 239 236
256 231 206 197 175 217 245 205 196 169 163 179 171 147 149 129 142 135 199 179 161 119 193 229 208 205 201 222 225 230 230 229 230 231 232 231 236 239 243 245 248 245 234 230
211 231 205 198 211 237 214 231 273 186 186 161 158 128 130 133 163 134 183 123 134 154 243 234 206 208 206 225 233 229 228 226 226 227 232 233 234 237 240 243 245 242 238 238
213 209 238 215 228 242 254 274 272 187 168 156 136 87 111 143 160 190 135 162 184 212 240 246 246 220 221 229 238 240 235 226 222 221 227 229 232 235 240 241 239 241 245 246
255 221 262 245 206 283 259 226 202 160 157 152 122 141 167 160 173 182 201 180 187 230 220 267 285 276 252 250 254 261 272 245 234 228 225 227 230 234 236 240 243 244 243 240
202 239 250 259 289 217 211 204 169 166 161 149 157 165 122 108 190 187 205 217 202 242 291 309 308 294 294 279 275 282 260 245 242 238 238 237 238 236 235 236 239 242 241 243
Wind_Speed_850mb
57 61 61 59 50 41 38 39 12 22 34 15 12 32 19 27 40 28 13 8 10 18 19 15 16 22 9 28 26 16 11 9 8 10 3 7 8 11 11 9 7 2 6 10
58 61 61 59 55 41 38 25 43 34 47 14 13 18 28 34 20 30 15 12 13 9 18 9 10 11 2 30 15 17 14 2 5 9 9 3 7 9 9 10 6 10 9 10
63 65 67 60 57 47 45 23 10 30 42 25 28 25 38 33 39 25 14 14 10 7 7 3 13 8 4 12 11 13 13 6 11 13 9 9 9 11 11 12 8 9 12 7
64 60 63 56 55 46 47 35 18 16 7 20 24 24 17 42 30 44 17 11 19 16 11 7 11 5 6 9 23 8 10 10 8 9 10 4 9 9 16 16 11 13 10 15
66 64 63 60 53 48 58 43 26 19 20 25 30 35 29 40 41 25 40 33 18 16 17 17 17 17 9 13 7 11 2 5 9 6 6 14 11 17 18 18 8 15 8 15
65 63 62 57 53 52 48 62 70 32 35 24 25 30 42 48 40 25 69 29 35 17 22 27 36 31 35 27 22 14 16 12 7 7 3 3 13 21 28 12 12 19 19 20
60 62 59 57 56 57 65 49 51 39 8 26 30 30 42 43 47 45 25 53 39 48 18 36 35 35 33 22 12 15 14 13 5 5 3 6 11 5 12 25 12 20 9 12
63 60 57 55 55 54 63 63 68 28 9 22 39 44 40 56 66 46 39 33 66 38 36 8 9 6 5 3 7 12 8 11 6 10 8 11 9 12 15 15 16 28 32 15
58 55 54 54 54 53 56 65 64 58 5 12 41 31 46 29 29 34 62 64 44 32 7 8 14 14 12 12 7 8 12 10 8 6 10 16 12 6 17 10 11 16 36 18
52 52 52 52 51 49 51 56 57 53 21 22 23 11 15 46 26 10 21 68 32 52 14 11 9 12 15 17 28 15 10 5 13 7 8 15 14 12 18 11 14 15 48 46
47 47 47 49 48 45 45 59 51 69 18 29 39 52 46 33 45 18 12 29 34 9 11 25 11 9 16 11 16 17 16 15 9 6 5 16 28 15 18 14 11 22 43 56
42 43 44 46 46 45 42 58 50 48 41 16 31 59 50 44 40 23 32 29 32 33 9 5 9 6 7 14 11 3 10 15 16 22 16 6 56 7 35 19 24 26 41 51
39 41 42 42 42 42 44 52 46 39 30 30 43 56 45 55 69 56 12 49 50 54 32 6 6 9 9 11 10 9 9 9 9 8 15 21 43 48 42 23 22 28 30 37
38 40 38 37 38 39 39 47 49 47 15 10 21 34 60 67 57 43 70 36 43 61 31 8 7 8 13 11 11 11 11 24 17 9 10 1 42 59 62 40 28 30 30 30
37 36 34 34 34 35 35 43 47 45 37 6 6 15 35 39 52 53 74 67 23 48 10 7 10 2 10 2 6 8 15 15 16 9 31 21 24 71 50 59 52 41 39 38
32 32 32 33 32 27 26 17 46 51 51 12 4 9 21 31 39 50 66 65 42 21 14 10 11 9 8 9 12 8 51 51 67 15 46 55 21 27 54 58 65 50 47 44
30 29 30 30 27 29 35 14 11 19 51 8 4 6 8 26 36 50 60 40 30 27 10 9 5 7 11 6 10 13 58 61 60 62 40 28 46 30 35 47 53 60 55 50
28 28 27 24 25 31 44 56 31 5 51 15 6 6 1 22 21 13 43 24 28 29 14 7 5 3 2 8 12 23 51 61 64 64 63 44 44 46 35 40 45 59 60 61
22 22 20 22 31 25 38 43 39 49 32 16 9 10 10 23 6 10 18 27 9 14 8 8 9 6 13 10 20 45 45 39 54 62 61 63 55 50 46 43 47 54 63 66
19 17 9 10 13 29 26 15 15 25 16 12 7 16 10 17 7 3 4 7 6 7 7 18 11 33 35 17 11 40 64 66 53 49 50 59 62 58 48 53 56 51 53 60
13 10 13 11 17 13 16 13 12 9 3 22 13 18 8 16 6 6 10 6 7 7 7 12 8 39 43 64 53 54 35 45 71 83 79 69 71 76 62 58 60 57 56 60
10 9 14 10 10 11 8 8 9 7 12 9 14 15 12 12 10 6 9 7 6 10 14 9 9 4 26 56 77 98 106 97 75 71 85 88 85 76 72 70 68 62 64 65
22 14 9 9 9 8 9 10 6 8 14 24 28 17 16 11 7 4 5 8 7 10 2 9 8 12 49 73 94 106 121 127 126 107 88 83 90 85 83 79 79 71 68 62
12 7 9 8 7 8 7 6 3 1 11 27 40 10 6 10 7 4 6 4 7 5 8 12 7 28 44 57 68 80 91 94 94 97 99 105 86 78 79 77 69 60 57 52
13 9 8 12 11 13 8 18 9 7 31 38 19 11 7 5 6 7 5 9 9 11 11 7 14 51 62 59 57 65 39 44 70 78 78 83 84 82 76 68 64 57 53 49
7 10 6 8 3 4 5 10 6 14 33 29 12 5 7 7 6 10 12 14 12 7 7 18 35 40 39 45 50 38 27 46 51 61 75 78 76 82 84 73 68 62 55 54
9 5 19 23 12 6 7 7 12 23 25 4 4 7 4 5 4 10 7 8 3 7 32 40 37 32 27 29 30 32 31 23 29 40 47 56 61 75 77 78 77 72 63 53
Wind_Direction_850mb
281 280 285 279 279 277 278 269 247 240 225 151 280 218 213 215 237 244 259 175 164 178 174 166 192 198 213 172 147 164 193 136 167 191 259 186 179 178 146 124 209 191 153 273
283 280 278 276 271 264 268 258 249 248 196 196 202 260 240 240 241 236 197 224 197 179 171 175 187 179 331 157 154 163 184 174 90 3 356 349 205 193 133 112 95 198 148 258
277 276 273 272 264 258 247 251 249 212 203 231 218 195 228 218 243 268 254 212 169 140 148 69 166 131 97 146 138 161 129 150 167 184 187 145 192 188 165 137 138 181 229 222
278 276 272 268 260 248 236 231 245 233 205 207 200 195 215 222 216 233 234 248 205 163 159 111 137 118 106 47 142 99 125 202 180 236 230 190 197 188 181 192 183 174 234 211
276 271 265 264 257 242 237 230 229 231 256 197 205 193 198 230 222 224 227 241 214 198 176 181 189 142 181 180 186 146 145 189 161 279 226 207 236 224 210 215 206 256 241 252
274 273 268 259 252 238 242 232 236 254 219 210 203 213 215 214 214 242 232 237 241 241 218 195 194 179 162 156 151 156 149 140 133 252 13 155 284 223 203 190 202 193 213 227
272 269 264 257 250 240 240 231 235 240 215 208 219 212 218 222 215 222 242 217 245 242 170 120 99 86 91 108 86 129 142 127 124 174 46 240 239 155 187 198 222 203 212 193
268 265 262 256 251 245 241 241 229 238 215 221 222 221 219 223 233 245 238 251 220 223 175 96 110 21 74 66 27 132 139 130 123 152 196 290 267 189 162 168 261 196 211 191
266 263 260 256 249 247 246 240 239 236 229 208 227 218 217 220 220 226 229 231 243 224 159 144 161 178 164 184 112 47 92 85 115 153 171 207 236 189 157 117 293 205 188 168
266 262 257 253 250 246 244 249 243 227 235 232 226 237 241 218 212 204 200 221 265 245 224 175 160 206 161 161 164 163 127 72 160 166 217 283 232 171 153 107 234 175 186 178
266 261 255 252 247 245 242 249 251 217 239 228 218 232 247 264 227 205 195 199 219 273 213 209 195 161 198 133 162 170 151 145 174 121 132 265 169 124 165 209 175 174 181 187
264 260 254 251 247 244 238 246 253 245 223 252 221 231 230 239 241 237 184 186 176 214 216 256 127 159 156 145 191 201 192 171 170 182 202 232 185 178 191 189 172 177 186 194
263 259 254 252 248 242 235 239 255 238 242 239 249 245 231 242 239 240 251 199 189 208 247 228 191 174 140 166 203 104 242 161 162 121 217 221 211 207 202 204 200 189 191 197
263 260 256 253 248 243 238 240 243 241 256 200 261 253 242 238 228 233 228 246 216 221 246 248 244 178 183 189 158 166 185 152 165 252 270 48 230 221 217 211 204 202 198 202
263 261 258 253 248 244 243 246 247 241 213 277 267 249 234 233 222 228 230 229 239 197 204 233 235 178 129 20 93 192 190 166 169 200 205 187 216 218 214 213 212 209 204 204
264 262 260 252 246 243 243 255 249 231 227 251 276 267 232 223 224 218 212 217 219 188 191 236 259 256 168 154 208 214 190 181 187 194 206 213 227 195 210 216 215 215 215 216
264 262 260 254 243 233 213 213 198 208 208 215 262 249 227 215 206 210 202 210 188 207 212 227 225 261 191 135 209 200 196 193 197 205 212 205 223 213 214 223 225 220 224 225
265 263 262 254 244 243 238 231 227 239 191 194 218 243 304 190 204 197 202 194 176 191 216 194 206 299 97 240 192 179 203 206 206 209 220 225 232 229 215 218 225 218 221 226
268 260 258 251 240 238 250 254 239 238 227 171 182 191 217 174 146 157 164 170 179 182 186 198 176 220 226 217 173 190 212 212 217 216 220 225 230 231 223 214 223 223 223 227
258 260 226 226 210 230 247 231 216 213 213 182 192 172 193 176 132 92 94 115 154 176 199 151 214 237 227 246 231 219 217 226 228 223 218 223 230 232 223 221 226 227 229 228
252 212 215 229 235 218 205 215 194 171 203 183 182 186 151 200 138 140 191 168 161 177 191 167 242 241 236 229 234 247 254 235 231 234 239 238 234 233 227 225 227 231 232 231
251 228 220 219 214 218 241 201 166 184 192 206 172 156 170 143 130 142 191 160 174 203 150 168 239 179 212 232 234 237 237 240 239 235 236 237 238 239 236 233 232 234 239 236
256 231 206 197 175 217 245 205 196 169 163 179 171 147 149 129 142 135 199 179 161 119 193 229 208 205 201 222 225 230 230 229 230 231 232 231 236 239 243 245 248 245 234 230
211 231 205 198 211 237 214 231 273 186 186 161 158 128 130 133 163 134 183 123 134 154 243 234 206 208 206 225 233 229 228 226 226 227 232 233 234 237 240 243 245 242 238 238
213 209 238 215 228 242 254 274 272 187 168 156 136 87 111 143 160 190 135 162 184 212 240 246 246 220 221 229 238 240 235 226 222 221 227 229 232 235 240 241 239 241 245 246
255 221 262 245 206 283 259 226 202 160 157 152 122 141 167 160 173 182 201 180 187 230 220 267 285 276 252 250 254 261 272 245 234 228 225 227 230 234 236 240 243 244 243 240
202 239 250 259 289 217 211 204 169 166 161 149 157 165 122 108 190 187 205 217 202 242 291 309 308 294 294 279 275 282 260 245 242 238 238 237 238 236 235 236 239 242 241 243